Regional Weather Roundup
Issued by NWS

Home | Current Version | Previous Version | Graphics & Text | Print | Product List | Glossary On
Versions: 1 2 3 4 5 6 7 8 9 10 11 12 13 14 15 16 17 18 19 20 21 22 23 24 25 26 27 28 29 30 31 32 33 34 35 36 37 38 39 40 41 42 43 44 45 46 47 48 49 50
000
ASUS43 KLOT 052300
RWRIL

ILLINOIS REGIONAL WEATHER ROUNDUP
NATIONAL WEATHER SERVICE CHICAGO/ROMEOVILLE IL
500 PM CST THU MAR 05 2015

NOTE: "FAIR" INDICATES FEW OR NO CLOUDS BELOW 12,000 FEET WITH NO
SIGNIFICANT WEATHER AND/OR OBSTRUCTIONS TO VISIBILITY.

* THESE STATIONS ARE NOT UNDER NWS QUALITY CONTROL. THEY ALSO MAY NOT
  REPORT WEATHER SUCH AS PRECIPITATION OR FOG.

ILZ001-002-007-009-015-016-024-060000-
NORTHWEST ILLINOIS

CITY           SKY/WX    TMP DP  RH WIND       PRES   REMARKS
MOLINE         CLEAR     14  -1  51 W5        30.54F WCI   6
STERLING*      CLEAR     12   1  62 W13       30.54R WCI  -3
$$

ILZ003-004-008-010-011-017-018-060000-
NORTH CENTRAL ILLINOIS

CITY           SKY/WX    TMP DP  RH WIND       PRES   REMARKS
ROCKFORD       CLEAR     12  -4  48 NW7       30.52R WCI   1
DE KALB*       CLEAR     10  -2  58 W9        30.50R WCI  -3
$$

ILZ005-006-012>014-019>023-060000-
NORTHEAST ILLINOIS

CITY           SKY/WX    TMP DP  RH WIND       PRES   REMARKS
CHICAGO-OHARE  CLEAR     14  -2  49 W8        30.48S WCI   3
CHICAGO-MIDWAY CLEAR     18  -1  43 NW9       30.50S WCI   7
AURORA         CLEAR     12   0  58 NW10      30.51S WCI  -1
WAUKEGAN       CLEAR     13  -4  46 VRB6      30.48R WCI   4
DUPAGE AIRPORT CLEAR     13  -2  51 W12       30.49R WCI  -1
WHEELING       CLEAR     15  -4  42 W7        30.51R WCI   5
NORTHERLY ISL    N/A     18   0  45 W7          N/A  WCI   9
$$

LMZ740>746-060000-
SOUTHERN LAKE MICHIGAN

STATION/POSITION SKY/WX   TEMP    WIND        PRES    VSBY  WAVE
                          AIR SEA DIR/SP/G                  HT/PER
                          (F)     (DEG/KT/KT) (MB)    (MI)  (FT/S)
WAUKEGAN HARBOR            15                   N/A
HARRISON CRIB              16     280/  9/ 11   N/A
BURNHAM HARBOR             18     280/  7/ 14   N/A
CALUMET HARBOR             18     260/  5/  9 1031.2R
MICHIGAN CITY              18     300/  8/ 10   N/A
$$

ILZ025>027-034>036-040-047-049-050-058-095>099-060000-
WEST-CENTRAL ILLINOIS

CITY           SKY/WX    TMP DP  RH WIND       PRES   REMARKS
QUINCY         SUNNY     18   2  49 NW6       30.54S WCI  10
$$

ILZ028>032-037-038-041>044-048-051>054-059>061-060000-
CENTRAL ILLINOIS

CITY           SKY/WX    TMP DP  RH WIND       PRES   REMARKS
DECATUR        CLEAR     14   1  56 NW10      30.55R WCI   1
PEORIA         CLEAR     15   0  51 W8        30.56R WCI   4
LINCOLN*       CLEAR     17   2  52 NW5       30.59R WCI  10
SPRINGFIELD    CLEAR     16   2  54 NW7       30.56S WCI   6
TAYLORVILLE    NOT AVBL
$$

ILZ033-039-045-046-055>057-062-063-060000-
EAST-CENTRAL ILLINOIS

CITY           SKY/WX    TMP DP  RH WIND       PRES   REMARKS
CHAMPAIGN      CLEAR     13   2  61 NW8       30.53S WCI   2
MATTOON        CLEAR     14   3  61 N9        30.53S WCI   2
$$

ILZ079-100>102-060000-
SOUTHWEST ILLINOIS

CITY           SKY/WX    TMP DP  RH WIND       PRES   REMARKS
ALTON          CLEAR     21   1  42 MISG      30.56R
BELLEVILLE     CLEAR     25   8  49 NE8       30.56R WCI  16
CAHOKIA*       SUNNY     25   8  48 N12       30.56S WCI  14
$$

ILZ064>066-069>071-074>076-080>082-084>086-088>090-092>094-060000-
SOUTH-CENTRAL ILLINOIS

CITY           SKY/WX    TMP DP  RH WIND       PRES   REMARKS
CARBONDALE     CLEAR     22   6  50 NE6       30.57R WCI  14
MARION         CLEAR     21   5  49 N14       30.57R WCI   8
MT. VERNON     CLEAR     19   1  45 NW3       30.57R
$$

ILZ067-068-072-073-078-083-087-091-060000-
SOUTHEAST ILLINOIS

CITY           SKY/WX    TMP DP  RH WIND       PRES   REMARKS
LAWRENCEVILLE  CLEAR     19   5  54 N14       30.56R WCI   6
$$

ABBREVIATIONS USED IN REMARKS
   TC - TEMPERATURE IN CELSIUS
  WCI - WIND CHILL INDEX
   HX - HEAT INDEX
  VSB - VISIBILITY
$$



USA.gov is the U.S. government's official web portal to all federal, state and local government web resources and services.